Time,TemperatureF,DewpointF,PressureIn,WindDirection,WindDirectionDegrees,WindSpeedMPH,WindSpeedGustMPH,Humidity,HourlyPrecipIn,Conditions,Clouds,dailyrainin,SoftwareType,DateUTC
2013-02-02 00:02:00,43.0,38.0,30.34,NE,37,0.0,0.0,84,0.00,,,0.00,,2013-02-02 06:02:00,
2013-02-02 00:12:00,43.0,38.0,30.34,NE,37,0.0,0.0,84,0.00,,,0.00,,2013-02-02 06:12:00,
2013-02-02 00:22:00,41.0,38.0,30.34,NE,37,0.0,0.0,88,0.00,,,0.00,,2013-02-02 06:22:00,
2013-02-02 00:32:00,41.0,38.0,30.35,NE,37,0.0,0.0,88,0.00,,,0.00,,2013-02-02 06:32:00,
2013-02-02 00:41:00,41.0,38.0,30.35,NE,37,0.0,0.0,88,0.00,,,0.00,,2013-02-02 06:41:00,
2013-02-02 00:51:00,40.0,37.0,30.35,NE,37,0.0,1.0,90,0.00,,,0.00,,2013-02-02 06:51:00,
2013-02-02 01:02:00,41.0,38.0,30.35,NE,37,0.0,0.0,90,0.00,,,0.00,,2013-02-02 07:02:00,
2013-02-02 01:11:00,41.0,38.0,30.35,NE,37,0.0,0.0,90,0.00,,,0.00,,2013-02-02 07:11:00,
2013-02-02 01:21:00,41.0,38.0,30.35,NE,37,0.0,0.0,88,0.00,,,0.00,,2013-02-02 07:21:00,
2013-02-02 01:31:00,41.0,38.0,30.35,NE,37,0.0,0.0,88,0.00,,,0.00,,2013-02-02 07:31:00,
2013-02-02 01:42:00,41.0,38.0,30.35,NE,37,0.0,0.0,88,0.00,,,0.00,,2013-02-02 07:42:00,
2013-02-02 01:52:00,40.0,37.0,30.35,NE,37,0.0,0.0,89,0.00,,,0.00,,2013-02-02 07:52:00,
2013-02-02 02:01:00,40.0,37.0,30.35,NE,37,0.0,0.0,90,0.00,,,0.00,,2013-02-02 08:01:00,
2013-02-02 02:11:00,40.0,37.0,30.35,NE,37,0.0,0.0,90,0.00,,,0.00,,2013-02-02 08:11:00,
2013-02-02 02:21:00,40.0,37.0,30.35,NE,37,0.0,0.0,90,0.00,,,0.00,,2013-02-02 08:21:00,
2013-02-02 02:31:00,40.0,37.0,30.35,NE,39,0.0,0.0,90,0.00,,,0.00,,2013-02-02 08:31:00,
2013-02-02 02:41:00,40.0,37.0,30.35,NE,39,0.0,0.0,90,0.00,,,0.00,,2013-02-02 08:41:00,
2013-02-02 02:53:00,40.0,38.0,30.35,NE,40,0.0,0.0,91,0.00,,,0.00,,2013-02-02 08:53:00,
2013-02-02 03:01:00,40.0,38.0,30.34,NE,47,0.0,0.0,92,0.00,,,0.00,,2013-02-02 09:01:00,
2013-02-02 03:11:00,40.0,38.0,30.34,NE,47,0.0,0.0,92,0.00,,,0.00,,2013-02-02 09:11:00,
2013-02-02 03:22:00,39.0,37.0,30.34,NE,47,0.0,0.0,93,0.00,,,0.00,,2013-02-02 09:22:00,
2013-02-02 03:31:00,38.0,36.0,30.33,East,84,0.0,0.0,94,0.00,,,0.00,,2013-02-02 09:31:00,
2013-02-02 03:42:00,38.0,36.0,30.33,East,84,0.0,0.0,94,0.00,,,0.00,,2013-02-02 09:42:00,
2013-02-02 03:52:00,38.0,37.0,30.33,East,84,0.0,0.0,95,0.00,,,0.00,,2013-02-02 09:52:00,
2013-02-02 04:01:00,38.0,37.0,30.33,East,84,0.0,0.0,95,0.00,,,0.00,,2013-02-02 10:01:00,
2013-02-02 04:11:00,38.0,37.0,30.33,East,84,0.0,0.0,95,0.00,,,0.00,,2013-02-02 10:11:00,
2013-02-02 04:21:00,39.0,37.0,30.33,East,84,0.0,1.0,94,0.00,,,0.00,,2013-02-02 10:21:00,
2013-02-02 04:32:00,39.0,38.0,30.33,East,84,0.0,0.0,96,0.00,,,0.00,,2013-02-02 10:32:00,
2013-02-02 04:42:00,39.0,38.0,30.33,East,84,0.0,0.0,96,0.00,,,0.00,,2013-02-02 10:42:00,
2013-02-02 04:52:00,40.0,39.0,30.33,East,84,0.0,0.0,96,0.00,,,0.00,,2013-02-02 10:52:00,
2013-02-02 05:01:00,40.0,39.0,30.34,East,83,0.0,1.0,97,0.00,,,0.00,,2013-02-02 11:01:00,
2013-02-02 05:11:00,40.0,39.0,30.34,East,83,0.0,1.0,97,0.00,,,0.00,,2013-02-02 11:11:00,
2013-02-02 05:21:00,40.0,39.0,30.33,East,92,0.0,1.0,96,0.00,,,0.00,,2013-02-02 11:21:00,
2013-02-02 05:32:00,40.0,39.0,30.33,NE,50,0.0,1.0,96,0.00,,,0.00,,2013-02-02 11:32:00,
2013-02-02 05:42:00,40.0,39.0,30.33,NE,50,0.0,1.0,96,0.00,,,0.00,,2013-02-02 11:42:00,
2013-02-02 05:52:00,39.0,38.0,30.33,East,90,0.0,1.0,96,0.00,,,0.00,,2013-02-02 11:52:00,
2013-02-02 06:01:00,39.0,38.0,30.33,East,90,0.0,1.0,96,0.00,,,0.00,,2013-02-02 12:01:00,
2013-02-02 06:11:00,39.0,38.0,30.33,East,90,0.0,1.0,96,0.00,,,0.00,,2013-02-02 12:11:00,
2013-02-02 06:22:00,39.0,38.0,30.33,East,90,0.0,1.0,96,0.00,,,0.00,,2013-02-02 12:22:00,
2013-02-02 06:32:00,39.0,38.0,30.33,East,101,0.0,1.0,95,0.00,,,0.00,,2013-02-02 12:32:00,
2013-02-02 06:42:00,39.0,38.0,30.33,East,101,0.0,1.0,95,0.00,,,0.00,,2013-02-02 12:42:00,
2013-02-02 06:52:00,39.0,37.0,30.33,East,101,0.0,1.0,93,0.00,,,0.00,,2013-02-02 12:52:00,
2013-02-02 07:03:00,39.0,37.0,30.33,ESE,115,0.0,1.0,92,0.00,,,0.00,,2013-02-02 13:03:00,
2013-02-02 07:11:00,39.0,37.0,30.33,ESE,115,0.0,1.0,92,0.00,,,0.00,,2013-02-02 13:11:00,
2013-02-02 07:21:00,39.0,37.0,30.33,East,101,0.0,2.0,91,0.00,,,0.00,,2013-02-02 13:21:00,
2013-02-02 07:32:00,39.0,37.0,30.33,East,82,0.0,1.0,92,0.00,,,0.00,,2013-02-02 13:32:00,
2013-02-02 07:42:00,39.0,37.0,30.33,East,82,0.0,1.0,92,0.00,,,0.00,,2013-02-02 13:42:00,
2013-02-02 07:52:00,39.0,37.0,30.33,East,82,0.0,1.0,92,0.00,,,0.00,,2013-02-02 13:52:00,
2013-02-02 08:02:00,40.0,37.0,30.33,ESE,111,0.0,2.0,89,0.00,,,0.00,,2013-02-02 14:02:00,
2013-02-02 08:11:00,40.0,37.0,30.33,ESE,111,0.0,2.0,89,0.00,,,0.00,,2013-02-02 14:11:00,
2013-02-02 08:22:00,42.0,38.0,30.34,East,99,1.0,2.0,84,0.00,,,0.00,,2013-02-02 14:22:00,
2013-02-02 08:32:00,43.0,38.0,30.34,East,94,2.0,4.0,83,0.00,,,0.00,,2013-02-02 14:32:00,
2013-02-02 08:42:00,43.0,38.0,30.34,East,94,2.0,4.0,83,0.00,,,0.00,,2013-02-02 14:42:00,
2013-02-02 08:52:00,45.0,40.0,30.33,East,101,1.0,3.0,83,0.00,,,0.00,,2013-02-02 14:52:00,
2013-02-02 09:03:00,47.0,42.0,30.34,SE,131,1.0,4.0,82,0.00,,,0.00,,2013-02-02 15:03:00,
2013-02-02 09:12:00,47.0,42.0,30.34,SE,131,1.0,4.0,82,0.00,,,0.00,,2013-02-02 15:12:00,
2013-02-02 09:22:00,49.0,43.0,30.34,SE,134,1.0,3.0,79,0.00,,,0.00,,2013-02-02 15:22:00,
2013-02-02 09:32:00,51.0,44.0,30.34,ESE,123,2.0,4.0,78,0.00,,,0.00,,2013-02-02 15:32:00,
2013-02-02 09:52:00,52.0,45.0,30.34,SSE,160,1.0,3.0,78,0.00,,,0.00,,2013-02-02 15:52:00,
2013-02-02 10:03:00,54.0,46.0,30.33,SSE,160,1.0,5.0,74,0.00,,,0.00,,2013-02-02 16:03:00,
2013-02-02 10:32:00,56.0,46.0,30.33,SSE,162,1.0,3.0,69,0.00,,,0.00,,2013-02-02 16:32:00,
2013-02-02 10:42:00,56.0,46.0,30.33,SSE,162,1.0,3.0,69,0.00,,,0.00,,2013-02-02 16:42:00,
2013-02-02 10:52:00,58.0,47.0,30.32,ESE,105,1.0,4.0,66,0.00,,,0.00,,2013-02-02 16:52:00,
2013-02-02 11:02:00,59.0,47.0,30.32,South,176,1.0,4.0,65,0.00,,,0.00,,2013-02-02 17:02:00,
2013-02-02 11:11:00,59.0,47.0,30.32,South,176,1.0,4.0,65,0.00,,,0.00,,2013-02-02 17:11:00,
2013-02-02 11:22:00,61.0,49.0,30.31,SSE,149,2.0,4.0,64,0.00,,,0.00,,2013-02-02 17:22:00,
2013-02-02 11:32:00,62.0,48.0,30.30,SE,143,2.0,6.0,61,0.00,,,0.00,,2013-02-02 17:32:00,
2013-02-02 11:42:00,62.0,48.0,30.30,SE,143,2.0,6.0,61,0.00,,,0.00,,2013-02-02 17:42:00,
2013-02-02 11:52:00,64.0,49.0,30.30,South,171,1.0,4.0,59,0.00,,,0.00,,2013-02-02 17:52:00,
2013-02-02 12:02:00,65.0,49.0,30.29,WSW,238,0.0,7.0,57,0.00,,,0.00,,2013-02-02 18:02:00,
2013-02-02 12:12:00,65.0,49.0,30.29,WSW,238,0.0,7.0,57,0.00,,,0.00,,2013-02-02 18:12:00,
2013-02-02 12:22:00,66.0,50.0,30.28,SW,233,1.0,5.0,56,0.00,,,0.00,,2013-02-02 18:22:00,
2013-02-02 12:32:00,67.0,51.0,30.27,SSE,149,1.0,6.0,57,0.00,,,0.00,,2013-02-02 18:32:00,
2013-02-02 12:42:00,67.0,51.0,30.27,SSE,149,1.0,6.0,57,0.00,,,0.00,,2013-02-02 18:42:00,
2013-02-02 12:52:00,68.0,52.0,30.27,SW,217,2.0,8.0,56,0.00,,,0.00,,2013-02-02 18:52:00,
2013-02-02 13:02:00,68.0,51.0,30.26,West,264,1.0,6.0,54,0.00,,,0.00,,2013-02-02 19:02:00,
2013-02-02 13:12:00,68.0,51.0,30.26,West,264,1.0,6.0,54,0.00,,,0.00,,2013-02-02 19:12:00,
2013-02-02 13:21:00,68.0,51.0,30.25,SSW,201,1.0,6.0,55,0.00,,,0.00,,2013-02-02 19:21:00,
2013-02-02 13:32:00,68.0,49.0,30.24,West,264,2.0,6.0,51,0.00,,,0.00,,2013-02-02 19:32:00,
2013-02-02 13:42:00,68.0,49.0,30.24,West,264,2.0,6.0,51,0.00,,,0.00,,2013-02-02 19:42:00,
2013-02-02 13:52:00,68.0,49.0,30.24,West,264,2.0,6.0,51,0.00,,,0.00,,2013-02-02 19:52:00,
2013-02-02 14:01:00,68.0,49.0,30.24,WNW,297,2.0,8.0,51,0.00,,,0.00,,2013-02-02 20:01:00,
2013-02-02 14:11:00,68.0,49.0,30.24,WNW,297,2.0,8.0,51,0.00,,,0.00,,2013-02-02 20:11:00,
2013-02-02 14:21:00,68.0,49.0,30.23,SW,222,1.0,3.0,50,0.00,,,0.00,,2013-02-02 20:21:00,
2013-02-02 14:32:00,69.0,50.0,30.22,SSW,209,2.0,6.0,50,0.00,,,0.00,,2013-02-02 20:32:00,
2013-02-02 14:42:00,69.0,50.0,30.22,SSW,209,2.0,6.0,50,0.00,,,0.00,,2013-02-02 20:42:00,
2013-02-02 14:52:00,69.0,48.0,30.22,East,99,1.0,5.0,48,0.00,,,0.00,,2013-02-02 20:52:00,
2013-02-02 15:02:00,70.0,49.0,30.22,West,264,0.0,5.0,47,0.00,,,0.00,,2013-02-02 21:02:00,
2013-02-02 15:11:00,70.0,49.0,30.22,West,264,0.0,5.0,47,0.00,,,0.00,,2013-02-02 21:11:00,
2013-02-02 15:21:00,68.0,49.0,30.22,West,261,0.0,4.0,51,0.00,,,0.00,,2013-02-02 21:21:00,
2013-02-02 15:32:00,69.0,50.0,30.21,SW,233,1.0,4.0,50,0.00,,,0.00,,2013-02-02 21:32:00,
2013-02-02 15:42:00,69.0,50.0,30.21,SW,233,1.0,4.0,50,0.00,,,0.00,,2013-02-02 21:42:00,
2013-02-02 15:52:00,69.0,48.0,30.20,West,273,1.0,5.0,48,0.00,,,0.00,,2013-02-02 21:52:00,
2013-02-02 16:02:00,69.0,49.0,30.19,WNW,295,1.0,4.0,49,0.00,,,0.00,,2013-02-02 22:02:00,
2013-02-02 16:12:00,69.0,49.0,30.19,WNW,295,1.0,4.0,49,0.00,,,0.00,,2013-02-02 22:12:00,
2013-02-02 16:21:00,68.0,49.0,30.19,WSW,255,0.0,5.0,50,0.00,,,0.00,,2013-02-02 22:21:00,
2013-02-02 16:32:00,68.0,48.0,30.19,WNW,294,1.0,4.0,49,0.00,,,0.00,,2013-02-02 22:32:00,
2013-02-02 16:42:00,68.0,48.0,30.19,WNW,294,1.0,4.0,49,0.00,,,0.00,,2013-02-02 22:42:00,
2013-02-02 16:52:00,68.0,48.0,30.19,WNW,294,1.0,4.0,49,0.00,,,0.00,,2013-02-02 22:52:00,
2013-02-02 17:02:00,68.0,48.0,30.19,WNW,294,1.0,4.0,49,0.00,,,0.00,,2013-02-02 23:02:00,
2013-02-02 17:11:00,68.0,48.0,30.19,WNW,294,1.0,4.0,49,0.00,,,0.00,,2013-02-02 23:11:00,
2013-02-02 17:21:00,67.0,48.0,30.19,SW,223,0.0,6.0,51,0.00,,,0.00,,2013-02-02 23:21:00,
2013-02-02 17:32:00,67.0,49.0,30.19,WSW,243,1.0,3.0,52,0.00,,,0.00,,2013-02-02 23:32:00,
2013-02-02 17:42:00,67.0,49.0,30.19,WSW,243,1.0,3.0,52,0.00,,,0.00,,2013-02-02 23:42:00,
2013-02-02 17:52:00,66.0,49.0,30.19,SW,232,0.0,1.0,54,0.00,,,0.00,,2013-02-02 23:52:00,
2013-02-02 18:02:00,64.0,48.0,30.20,WSW,257,0.0,0.0,57,0.00,,,0.00,,2013-02-03 00:02:00,
2013-02-02 18:11:00,64.0,48.0,30.20,WSW,257,0.0,0.0,57,0.00,,,0.00,,2013-02-03 00:11:00,
2013-02-02 18:22:00,62.0,48.0,30.20,WSW,257,0.0,0.0,61,0.00,,,0.00,,2013-02-03 00:22:00,
2013-02-02 18:32:00,61.0,49.0,30.20,WSW,257,0.0,1.0,65,0.00,,,0.00,,2013-02-03 00:32:00,
2013-02-02 18:42:00,61.0,49.0,30.20,WSW,257,0.0,1.0,65,0.00,,,0.00,,2013-02-03 00:42:00,
2013-02-02 18:51:00,60.0,49.0,30.21,WSW,257,0.0,0.0,68,0.00,,,0.00,,2013-02-03 00:51:00,
2013-02-02 19:02:00,58.0,49.0,30.22,WSW,257,0.0,0.0,71,0.00,,,0.00,,2013-02-03 01:02:00,
2013-02-02 19:11:00,58.0,49.0,30.22,WSW,257,0.0,0.0,71,0.00,,,0.00,,2013-02-03 01:11:00,
2013-02-02 19:21:00,56.0,49.0,30.22,WSW,257,0.0,0.0,76,0.00,,,0.00,,2013-02-03 01:21:00,
2013-02-02 19:32:00,56.0,49.0,30.22,WSW,257,0.0,0.0,77,0.00,,,0.00,,2013-02-03 01:32:00,
2013-02-02 19:42:00,56.0,49.0,30.22,WSW,257,0.0,0.0,77,0.00,,,0.00,,2013-02-03 01:42:00,
2013-02-02 19:52:00,55.0,49.0,30.22,WSW,257,0.0,0.0,80,0.00,,,0.00,,2013-02-03 01:52:00,
2013-02-02 20:01:00,55.0,50.0,30.22,WSW,257,0.0,0.0,82,0.00,,,0.00,,2013-02-03 02:01:00,
2013-02-02 20:11:00,55.0,50.0,30.22,WSW,257,0.0,0.0,82,0.00,,,0.00,,2013-02-03 02:11:00,
2013-02-02 20:21:00,53.0,48.0,30.22,WSW,257,0.0,0.0,84,0.00,,,0.00,,2013-02-03 02:21:00,
2013-02-02 20:32:00,54.0,49.0,30.22,WSW,257,0.0,0.0,82,0.00,,,0.00,,2013-02-03 02:32:00,
2013-02-02 20:42:00,54.0,49.0,30.22,WSW,257,0.0,0.0,82,0.00,,,0.00,,2013-02-03 02:42:00,
2013-02-02 20:52:00,53.0,48.0,30.22,WSW,257,0.0,0.0,84,0.00,,,0.00,,2013-02-03 02:52:00,
2013-02-02 21:02:00,52.0,49.0,30.23,WSW,257,0.0,0.0,88,0.00,,,0.00,,2013-02-03 03:02:00,
2013-02-02 21:11:00,52.0,49.0,30.23,WSW,257,0.0,0.0,88,0.00,,,0.00,,2013-02-03 03:11:00,
2013-02-02 21:21:00,53.0,48.0,30.23,WSW,257,0.0,0.0,84,0.00,,,0.00,,2013-02-03 03:21:00,
2013-02-02 21:31:00,54.0,49.0,30.23,WSW,257,0.0,0.0,82,0.00,,,0.00,,2013-02-03 03:31:00,
2013-02-02 21:42:00,54.0,49.0,30.23,WSW,257,0.0,0.0,82,0.00,,,0.00,,2013-02-03 03:42:00,
2013-02-02 21:52:00,54.0,49.0,30.23,WSW,257,0.0,0.0,82,0.00,,,0.00,,2013-02-03 03:52:00,
2013-02-02 22:01:00,53.0,48.0,30.23,WSW,257,0.0,0.0,84,0.00,,,0.00,,2013-02-03 04:01:00,
2013-02-02 22:11:00,53.0,48.0,30.23,WSW,257,0.0,0.0,84,0.00,,,0.00,,2013-02-03 04:11:00,
2013-02-02 22:21:00,53.0,49.0,30.23,WSW,257,0.0,0.0,85,0.00,,,0.00,,2013-02-03 04:21:00,
2013-02-02 22:32:00,53.0,48.0,30.23,WSW,257,0.0,0.0,84,0.00,,,0.00,,2013-02-03 04:32:00,
2013-02-02 22:42:00,53.0,48.0,30.23,WSW,257,0.0,0.0,84,0.00,,,0.00,,2013-02-03 04:42:00,
2013-02-02 22:52:00,53.0,49.0,30.23,WSW,257,0.0,0.0,86,0.00,,,0.00,,2013-02-03 04:52:00,
2013-02-02 23:03:00,54.0,50.0,30.24,WSW,256,0.0,1.0,85,0.00,,,0.00,,2013-02-03 05:03:00,
2013-02-02 23:12:00,54.0,50.0,30.24,WSW,256,0.0,1.0,85,0.00,,,0.00,,2013-02-03 05:12:00,
2013-02-02 23:22:00,54.0,50.0,30.24,WSW,256,0.0,0.0,86,0.00,,,0.00,,2013-02-03 05:22:00,
2013-02-02 23:32:00,54.0,50.0,30.24,WSW,256,0.0,0.0,86,0.00,,,0.00,,2013-02-03 05:32:00,
2013-02-02 23:42:00,54.0,50.0,30.24,WSW,256,0.0,0.0,86,0.00,,,0.00,,2013-02-03 05:42:00,
2013-02-02 23:52:00,54.0,51.0,30.25,NNW,328,1.0,3.0,88,0.00,,,0.00,,2013-02-03 05:52:00,